Wind_Speed
20 21 21 21 21 21 21 21 21 21 21 21 21 21 21 20 21 21 21 20 19 18 18 17 14 11 10 7 6 6 3 3 5 3 2 2 2 3 3 5 4 5 7 7 4 3 3 3 6 7 6 6 3 1 4 3 1 2 1 2 3 2 2 3 4 4 3 4 5 6 8 8 5 5 3 2 3 4 1 2 2 1 3 5 6 3 5 5
20 21 21 22 22 21 22 22 21 22 21 22 21 22 22 21 23 22 22 21 20 18 17 17 12 8 8 7 7 6 3 2 2 1 4 3 2 4 5 6 5 7 7 5 0 1 1 2 4 4 4 3 3 3 4 2 2 3 2 2 4 3 3 3 3 3 3 5 6 7 7 6 6 7 5 3 3 4 2 3 3 3 4 7 8 4 1 2
21 21 21 21 22 22 22 22 22 22 23 23 22 22 22 23 24 23 23 22 20 18 17 16 10 7 6 5 6 5 1 2 1 2 6 4 3 5 5 5 8 7 6 3 1 1 2 4 3 4 3 2 2 3 4 2 2 3 2 2 5 4 4 4 3 5 3 5 8 6 6 5 3 6 5 3 4 5 5 4 3 5 6 6 7 5 5 1
21 21 22 22 23 22 22 23 23 23 24 24 23 23 23 24 25 24 23 23 20 17 17 15 8 6 4 4 5 3 0 1 1 3 8 5 3 3 3 6 9 7 3 2 1 2 4 4 1 4 3 2 2 2 4 4 2 2 2 3 4 3 3 4 3 3 1 4 8 5 5 4 2 4 4 5 5 3 6 6 7 8 9 8 8 7 7 4
21 22 22 23 23 22 23 23 23 24 24 24 24 24 25 25 25 24 23 22 20 17 17 12 7 5 2 2 3 1 1 1 2 4 7 4 2 1 1 6 9 7 3 2 3 2 3 1 3 3 2 1 2 2 4 5 3 2 2 3 4 2 2 4 3 1 3 4 5 6 5 3 2 3 4 6 5 4 5 7 9 9 8 9 9 8 7 5
21 22 22 23 23 24 24 24 24 24 24 25 25 26 27 26 25 24 23 22 19 17 16 8 4 4 2 1 0 2 2 1 0 4 4 3 2 1 1 6 9 7 4 3 3 1 1 2 4 3 2 1 3 3 4 4 3 2 2 2 4 3 3 3 1 0 4 6 5 5 3 2 2 1 3 5 6 5 2 4 7 6 6 8 7 7 8 7
21 21 22 23 24 24 25 25 24 24 25 25 25 26 27 27 26 24 22 20 17 16 13 5 1 2 1 2 2 2 1 3 1 3 2 2 2 2 4 6 8 6 4 3 1 2 3 4 3 4 4 1 4 4 4 3 3 3 3 2 3 2 5 4 3 2 5 6 3 3 2 2 4 2 1 4 7 6 3 3 1 1 4 6 5 5 6 6
21 22 22 23 24 25 25 25 25 25 26 26 27 27 27 27 25 23 21 19 16 13 9 3 1 1 1 2 3 2 2 3 2 3 2 2 3 3 5 5 7 4 3 3 2 3 4 5 5 4 4 4 4 4 4 3 2 4 5 3 1 1 3 3 4 3 4 4 2 4 2 3 4 1 2 5 8 6 3 2 3 3 3 4 4 4 3 4
23 23 23 24 24 25 26 26 26 26 26 27 29 28 26 27 24 22 20 17 14 10 4 2 2 1 1 1 4 1 2 4 3 2 1 1 3 4 4 4 4 3 2 4 4 5 4 5 5 5 5 4 5 4 5 5 3 6 6 3 1 1 2 2 3 3 3 3 3 3 2 5 3 2 4 7 9 7 4 1 2 4 3 3 3 4 3 4
24 24 24 24 25 26 26 26 27 27 27 28 29 28 27 26 24 22 18 14 11 6 1 3 4 0 2 1 5 1 2 6 3 1 0 2 3 4 3 3 2 1 2 3 2 4 4 4 4 4 5 3 4 3 4 6 3 4 6 3 2 1 2 1 2 4 1 1 3 4 4 5 3 2 4 5 5 5 5 4 2 3 4 4 4 4 4 4
24 25 24 25 26 27 27 27 27 28 29 29 30 28 27 27 23 20 15 11 8 4 3 4 3 1 2 3 4 4 3 7 3 1 1 2 2 3 3 3 1 1 2 1 3 5 5 4 3 4 2 2 3 2 2 4 1 2 5 3 1 4 3 2 2 4 1 1 4 6 3 5 2 3 7 3 1 1 5 5 4 5 5 4 5 5 4 5
24 25 26 27 27 27 28 28 29 30 30 30 30 28 28 27 21 15 10 7 5 4 4 3 2 2 3 2 2 4 4 6 4 2 1 1 1 2 3 3 1 2 2 1 3 5 5 3 4 4 2 2 3 2 2 2 3 2 5 3 4 7 4 6 3 4 4 2 4 7 1 4 4 9 7 3 0 2 4 2 4 4 5 4 5 5 5 6
25 26 27 27 27 27 28 28 30 31 31 31 29 29 29 24 15 9 5 3 3 4 3 2 2 3 4 1 2 3 5 5 4 3 2 1 1 1 3 3 2 2 1 4 4 4 4 2 5 5 2 4 2 1 1 3 3 1 3 2 2 5 5 6 3 5 6 3 4 7 2 5 8 12 7 3 3 1 1 5 4 3 3 4 4 3 5 6
26 27 27 27 27 28 29 29 31 33 33 31 30 30 25 16 7 3 1 2 4 5 3 2 3 4 4 1 2 4 4 4 3 2 1 1 1 2 3 3 2 2 2 5 5 3 2 2 5 3 1 3 1 1 4 5 3 1 2 1 0 1 4 6 2 7 7 2 4 7 2 6 7 10 8 4 5 4 5 6 5 5 4 4 4 3 5 6
26 27 28 28 28 29 30 32 33 33 34 31 30 28 17 7 3 2 3 3 3 4 2 2 4 5 3 2 1 4 3 2 2 1 1 2 1 1 2 3 2 2 2 3 4 2 2 3 5 2 1 2 3 3 3 4 3 2 2 1 1 3 5 7 2 10 8 2 3 7 2 6 7 8 7 2 4 6 5 5 4 5 4 4 4 3 4 5
26 27 28 28 29 30 31 33 34 35 34 30 30 21 7 4 4 5 5 2 2 3 2 2 4 4 2 1 1 4 2 1 1 0 0 2 3 1 3 3 2 2 3 2 3 3 2 3 3 2 2 2 4 5 3 2 3 3 2 3 2 3 3 5 3 6 6 3 2 4 2 3 5 6 6 4 4 6 4 4 4 4 4 4 4 4 4 5
26 27 28 28 30 30 32 34 34 35 32 31 28 12 3 6 7 6 4 4 5 5 5 3 3 2 2 1 2 2 0 1 1 1 1 1 4 1 3 3 2 2 2 2 2 1 2 3 1 1 2 2 3 5 3 2 4 2 1 3 3 3 3 2 3 3 3 4 5 4 3 5 6 5 7 6 3 4 3 5 5 4 5 5 4 4 4 5
25 27 28 28 29 29 32 33 33 33 31 31 23 5 6 7 9 9 6 6 7 7 6 4 2 1 1 1 1 1 1 2 2 2 1 1 2 2 2 2 2 3 4 3 1 1 1 2 2 1 2 2 3 5 4 6 5 5 4 3 3 3 4 4 3 3 4 4 5 6 4 9 10 8 7 6 3 1 5 5 4 5 5 5 5 4 5 5
26 27 27 28 29 30 32 32 31 30 30 30 15 4 7 5 5 6 9 7 4 4 2 2 2 1 1 2 2 2 1 3 2 1 1 0 1 2 2 2 3 4 3 2 1 1 2 2 3 3 2 4 6 8 7 6 7 8 6 4 5 4 4 5 4 5 5 5 5 8 7 9 11 9 8 7 2 1 6 5 5 6 5 6 5 5 5 5
26 26 27 28 29 30 31 30 27 26 29 27 9 6 4 2 1 4 8 7 1 1 1 2 0 0 1 3 3 3 2 2 1 1 2 3 2 1 2 3 5 4 2 4 2 1 3 3 3 5 7 8 8 8 6 5 5 6 5 4 4 4 4 4 4 5 2 5 5 6 7 9 9 9 9 6 3 1 6 6 7 7 6 6 6 6 7 6
25 26 27 28 29 30 29 25 21 21 24 22 13 7 3 3 3 2 5 5 3 2 2 3 2 1 1 2 3 3 1 1 2 2 2 2 2 2 1 2 4 1 2 3 2 1 3 4 7 7 8 7 7 7 6 4 5 5 5 5 2 3 4 4 3 5 3 3 4 1 4 9 9 9 9 6 3 4 7 7 8 9 8 7 6 7 7 6
26 27 27 28 28 30 28 20 16 17 21 25 22 11 3 2 3 1 2 3 5 4 2 3 1 1 2 1 2 2 2 2 2 4 3 3 2 1 1 3 4 2 2 1 2 2 1 4 8 7 5 4 4 7 8 4 5 4 3 4 2 3 2 4 4 5 4 2 4 1 2 8 9 9 9 7 6 7 8 8 8 8 7 7 6 7 7 7
26 27 27 28 28 30 26 14 9 14 21 27 22 10 4 6 4 1 1 1 5 5 2 1 0 1 3 1 1 1 3 2 1 3 5 4 1 1 2 3 3 2 1 3 4 4 2 5 7 6 5 5 4 5 8 4 3 3 3 4 2 2 2 2 4 4 3 1 1 1 2 6 7 8 9 10 8 7 7 6 5 5 7 8 7 6 7 8
26 26 28 28 29 30 20 6 9 14 17 23 21 12 8 7 4 1 0 0 2 4 2 2 2 1 1 1 0 2 2 1 2 2 5 3 1 0 2 3 3 2 3 4 6 5 4 5 2 4 5 6 6 5 7 6 1 2 3 5 3 3 4 3 2 1 4 4 2 1 4 5 6 8 10 8 4 5 6 6 7 7 7 7 7 7 7 8
26 26 28 28 29 29 11 3 13 13 8 15 17 13 10 6 4 2 0 1 1 4 2 1 0 1 0 1 1 1 1 1 0 2 4 4 1 0 0 2 2 2 3 4 5 3 6 6 2 5 3 4 7 4 4 6 2 3 3 6 6 6 5 2 3 4 4 4 2 1 3 6 5 6 9 6 2 3 3 4 7 8 7 6 6 7 7 6
25 26 27 27 28 25 6 2 13 11 3 8 13 13 9 5 5 2 1 3 2 3 0 0 1 0 1 1 1 1 1 1 2 2 3 3 0 1 1 0 1 2 4 4 3 1 3 3 2 5 4 5 6 2 4 5 4 1 4 7 6 6 6 6 5 4 1 3 2 2 3 5 6 3 6 4 3 3 4 4 6 7 6 5 5 6 7 7
25 26 26 25 25 21 6 1 10 9 3 6 14 13 7 6 6 2 0 4 3 1 2 1 1 1 1 1 1 1 1 2 2 2 3 2 2 1 2 1 0 1 1 3 1 2 3 1 4 4 4 5 4 1 4 6 6 2 3 4 6 6 6 7 7 4 2 2 3 3 3 3 5 5 5 3 3 6 6 6 7 5 6 7 7 8 9 9
24 25 24 23 20 14 6 3 6 7 5 12 16 12 7 7 4 2 3 3 2 1 2 1 1 1 1 2 3 2 1 2 2 1 3 3 3 2 2 1 3 2 2 4 3 4 1 1 1 4 4 3 3 3 6 7 5 4 2 6 5 5 5 5 6 2 1 2 3 4 1 1 5 6 5 4 3 3 5 6 5 7 9 11 11 11 13 13
24 25 23 20 15 7 4 5 6 9 13 15 14 10 8 6 2 3 4 1 1 2 1 1 1 2 3 4 4 3 2 2 2 2 4 4 3 3 2 1 3 1 3 3 3 4 1 1 2 4 4 4 4 3 6 7 3 3 5 8 6 6 5 5 5 3 4 2 6 7 3 2 5 4 1 3 2 2 6 3 5 9 10 11 12 13 14 13
24 23 20 17 11 7 4 5 9 14 17 17 14 10 6 2 1 5 2 2 1 2 0 1 1 3 4 4 4 4 2 2 1 2 3 2 3 4 2 0 4 4 3 4 1 4 2 2 1 2 2 4 3 1 2 5 6 5 6 7 7 7 5 4 3 4 4 3 8 7 7 5 4 3 3 2 1 3 3 3 7 8 11 12 12 13 14 14
23 22 18 12 10 10 7 6 14 19 19 19 14 6 1 1 4 5 1 2 1 2 3 3 3 4 5 4 3 3 3 3 4 3 2 2 4 4 3 2 3 4 4 4 3 5 6 4 2 2 2 2 3 3 3 3 5 6 4 5 4 4 5 5 5 4 2 7 6 5 8 7 4 5 2 1 4 5 4 7 8 10 12 12 12 13 13 13
24 21 12 6 7 10 8 9 19 21 20 19 10 1 3 3 2 2 2 3 1 2 2 2 2 3 4 3 2 3 2 2 2 2 1 1 2 1 1 1 1 2 3 3 2 5 4 3 3 4 3 2 4 2 2 4 3 4 5 6 4 1 3 1 3 1 3 7 4 3 4 4 6 5 3 6 8 10 9 9 9 11 11 11 12 12 11 11
24 16 6 4 6 8 10 15 20 19 20 17 6 3 5 3 1 2 2 3 1 1 1 1 2 1 1 3 2 3 1 1 1 1 1 1 1 2 1 2 2 1 2 3 1 3 3 4 4 3 3 0 5 5 2 1 2 5 6 6 5 4 2 3 4 1 4 5 3 2 4 2 5 3 7 9 9 10 11 11 10 11 12 11 11 10 11 12
21 11 3 3 4 7 14 19 18 15 17 13 4 4 4 1 3 1 3 2 1 2 1 1 3 2 1 1 3 2 1 1 2 2 1 2 1 2 1 4 4 2 2 1 0 1 3 5 3 1 2 2 2 3 4 4 3 3 4 5 5 6 5 5 5 3 4 3 2 1 2 2 4 2 6 7 9 10 11 11 10 11 10 9 10 11 13 13
16 4 2 6 7 11 18 19 16 13 12 7 5 5 2 3 3 2 3 3 2 3 4 1 1 2 3 3 3 2 0 1 3 3 2 0 2 1 0 3 5 3 2 2 1 1 2 5 4 2 3 2 3 2 1 4 1 1 2 4 3 5 5 3 4 6 4 1 1 2 1 2 4 6 5 5 8 10 11 11 12 12 10 9 11 12 12 11
11 3 5 9 14 18 20 17 16 13 6 4 6 2 3 3 1 1 1 3 2 3 6 4 3 3 4 4 3 5 3 1 2 3 2 1 1 2 2 2 4 3 2 2 2 1 1 3 4 3 3 3 1 3 1 2 2 1 2 3 4 2 5 3 3 3 3 1 3 3 2 1 5 5 3 5 10 11 11 12 12 11 11 12 11 10 11 10
11 4 4 11 18 21 19 16 16 12 4 5 6 1 3 1 1 0 2 3 2 2 3 2 2 1 2 3 3 5 4 2 2 2 1 1 1 2 2 1 2 2 1 1 2 2 2 2 5 1 1 3 1 1 3 3 3 4 2 4 1 2 3 3 2 1 2 3 4 4 6 6 5 4 2 6 10 10 10 10 10 10 11 11 10 9 10 9
9 2 2 12 20 20 19 16 14 8 4 5 5 2 2 2 2 2 3 3 2 2 3 1 2 1 1 0 3 5 4 2 2 2 0 1 0 3 4 2 1 2 4 2 0 0 3 1 6 2 2 5 4 2 1 4 4 3 2 1 3 1 1 2 3 2 3 5 4 4 7 6 3 3 3 6 8 8 8 8 9 11 11 9 9 9 10 10
6 2 1 12 20 21 21 15 9 4 5 5 3 2 1 2 3 3 4 3 1 2 2 1 1 2 1 1 1 4 3 1 2 2 1 1 0 3 4 2 2 4 7 3 2 1 2 2 4 4 3 4 5 2 1 3 4 3 2 3 3 3 2 2 3 1 2 5 4 4 6 2 1 1 6 8 7 6 6 7 9 9 9 8 8 9 9 10
4 2 2 14 22 23 19 9 4 5 5 3 2 1 1 1 2 4 5 5 3 1 1 1 1 1 1 1 1 1 2 2 1 1 0 1 1 2 3 2 3 6 7 4 3 1 2 2 3 5 5 3 2 1 1 1 3 3 3 3 3 1 0 0 1 1 2 3 4 5 5 1 1 3 7 8 6 7 6 7 7 7 8 8 8 8 8 9
4 2 3 16 25 23 14 5 4 4 3 2 2 1 2 2 1 4 6 5 3 1 2 2 1 0 1 1 1 1 2 2 2 1 1 2 2 1 1 2 2 5 4 4 4 2 2 2 1 2 4 1 1 1 1 0 1 1 1 0 1 1 1 1 3 2 1 2 2 4 4 1 2 4 6 7 6 6 6 7 6 6 8 8 8 9 9 9
4 2 4 18 26 20 8 5 3 3 4 1 1 0 2 3 2 3 5 5 4 2 3 3 2 1 1 1 0 1 2 1 1 1 0 1 2 1 1 2 3 2 1 2 2 0 2 3 1 2 2 2 2 2 3 2 5 5 2 1 1 1 2 1 4 1 1 1 0 1 3 1 3 5 6 7 6 7 7 8 7 6 8 8 8 9 9 9
3 1 5 20 23 11 6 6 4 4 2 2 1 1 3 2 2 3 4 4 4 2 3 2 1 1 1 1 1 1 2 1 1 1 1 1 2 1 3 5 4 2 2 1 2 1 2 3 0 3 3 4 5 3 4 5 5 5 2 3 3 2 2 2 2 1 1 2 1 1 4 2 2 4 7 7 7 8 8 8 8 6 7 8 8 9 9 9
1 2 3 18 21 8 6 3 1 3 2 3 3 4 4 2 2 3 3 3 2 2 2 2 1 1 1 2 3 0 1 1 1 2 3 1 1 2 3 5 4 3 2 0 1 1 1 1 1 1 3 5 5 5 5 5 3 3 1 2 4 4 3 2 1 2 0 3 3 4 4 1 5 5 7 8 7 9 8 8 8 7 7 8 8 8 8 9
3 1 3 13 21 13 5 3 5 4 2 4 4 4 4 3 1 1 0 2 0 2 1 1 1 1 0 3 4 2 1 2 0 2 2 1 2 2 4 7 5 2 0 1 1 2 1 1 3 3 2 3 2 2 2 2 1 1 1 2 3 4 4 2 1 1 2 3 3 4 2 1 6 7 7 7 7 8 8 8 8 8 8 9 8 8 8 8
2 2 2 7 11 9 3 1 4 4 2 3 3 3 3 2 3 2 1 1 1 1 1 0 2 3 3 4 4 3 2 2 1 1 1 2 3 2 3 5 4 2 4 2 3 3 3 1 2 6 6 5 5 6 4 1 0 2 1 1 0 1 1 2 1 3 2 2 4 4 3 2 4 1 5 7 8 7 6 7 8 7 8 9 9 9 9 8
2 1 1 2 3 4 4 4 5 4 2 3 2 1 1 1 3 4 2 1 1 2 2 2 3 3 1 2 3 2 3 2 2 1 1 2 2 4 4 3 3 4 4 2 2 3 4 1 3 5 6 7 7 7 3 3 1 3 3 4 3 3 4 3 4 6 1 2 7 7 1 4 10 6 5 6 7 6 6 6 7 7 7 8 9 10 12 11
2 1 1 2 1 1 2 2 3 4 3 3 2 1 2 2 1 1 2 0 1 2 2 2 4 3 1 1 3 0 2 2 3 3 2 2 2 4 6 3 2 3 4 2 2 3 5 3 3 4 6 8 5 5 2 3 3 4 3 5 6 4 5 6 7 8 3 3 8 9 7 10 11 4 4 5 7 6 5 6 5 6 7 8 9 10 12 13
2 2 1 3 2 2 3 2 1 4 3 1 2 3 3 1 1 1 0 1 2 2 2 1 3 5 3 1 2 1 1 1 3 3 1 1 2 1 3 4 2 2 3 2 3 3 4 2 3 4 4 7 4 4 4 4 4 4 5 7 7 7 9 8 8 7 6 8 10 10 13 13 7 2 4 4 5 4 4 5 4 5 7 8 9 10 11 12
2 2 0 3 3 1 2 1 2 3 2 1 1 1 1 3 4 2 1 2 0 2 3 2 1 2 1 1 1 1 2 1 3 4 2 0 1 0 0 1 1 2 2 2 2 1 2 0 1 3 0 6 5 2 5 5 6 5 6 8 7 8 10 10 9 7 6 9 10 10 13 10 1 5 3 4 5 4 4 5 5 5 6 7 8 9 10 11
4 3 3 4 2 1 2 1 2 3 1 1 1 1 3 4 3 2 2 1 2 1 2 2 1 1 1 1 0 2 3 2 3 5 3 3 2 1 1 1 1 2 2 0 1 2 1 1 2 2 1 5 3 1 3 3 2 3 6 8 9 9 8 7 8 8 8 9 9 9 9 4 2 3 3 4 6 6 5 5 4 4 5 6 7 7 9 11
4 4 4 4 2 2 2 1 3 3 1 1 3 3 3 2 2 2 2 2 3 4 1 1 3 1 2 2 2 2 4 3 3 3 3 3 2 2 2 2 2 2 1 1 0 1 2 2 1 0 3 4 1 3 3 1 2 4 6 8 10 9 8 8 9 9 6 4 6 7 3 1 2 3 3 3 5 5 5 6 4 3 5 5 6 6 7 8
Wind_Direction
359 357 355 355 353 352 349 347 347 345 344 342 340 338 337 336 335 335 334 337 337 334 335 334 332 330 325 324 328 332 320 196 186 202 208 181 167 169 230 262 245 208 193 196 205 218 220 209 216 193 163 174 195 210 180 197 179 154 192 218 231 184 201 199 184 197 155 162 170 166 173 167 165 167 170 103 160 213 241 265 241 164 235 247 254 290 351 1
358 356 353 353 351 351 349 346 346 344 343 340 339 336 334 334 333 332 332 336 336 333 334 332 330 325 319 318 329 335 330 170 162 222 195 176 181 204 246 247 203 186 183 177 157 12 178 226 224 176 141 165 194 185 168 182 181 186 183 200 228 204 216 223 209 219 171 162 169 174 179 174 170 161 164 174 182 190 209 267 251 245 236 238 253 243 181 48
356 354 352 352 350 349 347 346 345 343 341 338 337 335 334 332 330 329 331 334 333 333 333 329 325 321 310 304 327 332 337 117 76 242 182 166 215 234 258 220 185 177 176 161 32 339 238 259 237 154 137 195 206 164 176 205 194 197 171 199 232 219 244 281 256 233 219 152 157 178 179 176 178 149 158 182 167 177 201 220 210 240 234 208 220 195 175 175
355 353 352 350 349 348 345 344 343 342 340 337 335 334 333 331 328 328 330 332 331 331 331 326 319 317 298 291 325 315 153 79 294 202 169 170 222 260 266 197 181 173 176 176 237 272 268 285 227 141 137 214 261 138 180 215 190 181 175 201 228 211 235 292 294 223 141 132 157 162 155 179 194 143 165 161 150 202 223 216 198 213 216 192 192 176 164 174
355 352 351 349 347 346 344 342 341 341 339 336 334 331 331 329 328 329 329 330 328 329 329 325 315 319 293 288 319 249 110 350 282 174 172 189 194 301 264 185 181 183 187 189 212 242 265 303 90 110 113 184 224 145 199 217 160 170 218 217 229 205 221 277 312 119 91 84 122 134 154 175 128 142 183 169 174 215 221 221 213 211 202 186 184 171 155 156
353 352 350 348 347 345 343 341 340 340 337 336 333 330 328 327 328 329 327 327 326 327 327 319 311 320 286 278 256 148 132 251 228 139 188 207 175 256 184 175 181 189 200 198 219 205 151 62 93 140 139 163 206 198 230 227 154 181 247 257 254 223 209 232 247 138 97 95 119 152 172 122 108 230 209 189 214 229 240 249 228 217 190 183 178 165 161 163
352 352 349 348 346 343 342 340 340 338 336 334 332 329 326 326 328 327 325 325 324 324 321 310 311 316 270 233 179 104 100 225 167 129 191 187 186 210 161 169 176 185 209 211 219 159 134 97 135 161 136 173 220 214 240 225 171 197 228 263 288 217 193 188 172 160 100 118 160 147 107 123 174 230 291 218 237 251 293 339 285 179 153 164 165 174 179 171
351 350 349 347 344 343 341 339 339 336 335 333 330 329 327 328 328 325 324 322 322 321 312 284 277 312 266 204 162 34 326 216 163 122 150 177 200 178 151 160 176 195 229 253 272 177 147 136 169 158 150 211 201 196 210 181 195 219 220 239 310 293 200 175 153 144 121 135 122 100 125 229 208 222 308 241 242 254 267 16 56 72 106 148 171 201 194 172
350 348 347 346 345 343 340 339 338 335 334 331 329 329 329 330 327 324 321 318 319 312 299 256 239 106 287 203 119 342 275 154 128 93 81 222 212 181 163 153 179 226 251 269 260 193 164 169 191 169 171 208 186 189 186 170 236 220 199 202 162 345 281 195 167 173 167 152 118 124 228 272 269 302 286 244 238 238 214 181 101 99 133 185 212 226 215 198
346 346 347 346 345 342 340 339 337 335 333 329 329 330 330 331 327 321 316 317 314 290 237 229 234 118 257 151 100 234 205 115 105 60 12 252 222 200 188 166 186 250 294 285 228 164 151 171 194 158 150 179 184 183 168 177 222 201 173 167 153 358 315 243 221 233 232 178 162 176 239 285 320 302 256 247 257 237 205 223 198 145 185 207 232 245 238 227
346 346 346 345 343 342 340 339 336 334 332 329 331 332 332 332 326 317 312 315 303 241 188 227 236 243 211 124 121 209 159 109 101 65 328 257 221 216 196 181 196 32 345 4 111 116 119 153 158 129 143 192 180 153 189 192 163 131 139 148 276 340 302 242 270 258 213 227 181 154 234 297 353 252 232 209 4 106 173 224 225 194 211 211 226 244 245 242
346 345 344 343 342 341 340 338 336 334 332 331 333 335 335 331 322 313 310 309 279 203 186 229 235 185 148 85 173 194 137 122 116 105 143 202 166 205 187 178 150 33 342 120 110 91 100 111 111 125 200 172 154 149 205 181 95 104 112 150 293 353 300 234 226 217 172 203 175 132 328 297 223 232 228 170 284 61 114 251 259 222 222 213 221 236 243 247
345 344 343 343 342 342 341 339 337 334 333 334 336 338 336 328 318 310 309 284 212 173 175 218 218 167 131 47 242 157 137 142 133 140 170 211 174 121 148 165 123 45 19 146 130 90 99 75 101 136 158 116 160 204 117 54 79 119 90 126 296 4 302 249 203 176 168 189 162 140 253 273 239 243 242 198 225 245 267 265 263 260 257 234 235 246 261 264
345 344 344 344 344 343 341 340 337 335 335 336 340 340 335 327 317 316 317 182 162 159 186 204 175 149 135 249 249 156 163 155 148 166 153 278 207 128 132 144 133 99 90 128 124 93 111 86 88 108 86 103 192 353 38 17 42 124 110 95 165 163 269 280 217 162 168 214 142 128 224 262 263 268 271 243 190 177 234 249 247 263 275 277 289 286 279 280
345 345 345 345 344 343 341 340 337 337 337 338 343 342 337 335 340 93 111 151 158 171 207 191 163 139 118 301 275 166 166 130 155 178 57 18 39 148 151 137 148 137 115 121 127 115 129 116 93 108 223 40 64 78 43 3 16 67 153 257 294 183 258 303 246 168 170 219 128 127 205 263 268 279 297 318 142 156 211 239 246 255 264 274 281 267 265 279
346 346 345 345 345 343 342 340 339 339 337 340 347 344 346 33 70 111 114 116 137 162 125 119 163 133 97 311 94 139 124 92 164 149 66 16 29 122 160 146 153 142 146 141 136 142 108 93 97 138 144 64 85 98 68 11 335 359 162 220 234 186 253 314 291 196 171 123 156 165 187 259 269 281 312 360 105 139 187 252 261 254 255 250 252 262 267 284
347 346 344 345 344 344 344 341 341 339 337 345 349 351 77 84 90 99 96 100 100 106 90 84 156 126 73 90 102 128 338 337 254 308 230 40 32 80 151 146 141 114 117 104 114 137 64 58 106 148 73 78 119 103 91 218 247 295 201 217 230 183 193 274 288 252 156 135 188 196 201 245 266 292 309 330 47 121 193 244 255 249 247 241 244 261 268 282
347 345 344 345 344 345 344 342 343 339 339 348 347 0 119 120 105 76 73 111 110 93 78 55 74 120 14 41 64 277 290 305 310 321 274 197 36 56 124 127 108 86 62 45 41 106 42 24 82 98 41 74 139 135 171 216 207 198 191 193 230 214 204 219 245 228 160 149 185 186 220 253 266 289 294 304 13 134 234 243 258 263 256 258 262 257 255 269
345 344 345 345 345 345 344 345 347 340 343 351 350 119 127 146 130 57 47 72 103 94 83 4 40 153 253 322 324 335 316 317 324 339 2 12 7 29 85 78 80 89 83 72 62 155 120 54 76 129 181 184 188 183 187 196 179 183 185 170 184 204 233 233 247 244 166 144 195 193 210 244 254 269 275 289 6 201 261 282 286 280 275 275 276 269 264 257
344 345 345 345 345 345 345 349 349 344 350 356 4 127 97 48 11 347 11 27 94 117 288 256 288 158 306 317 326 339 326 334 330 309 4 354 350 35 88 42 37 48 108 148 165 178 113 132 203 199 199 194 194 192 172 151 145 147 149 165 187 188 245 253 254 284 135 150 223 204 210 243 252 262 266 285 1 249 257 267 265 264 264 266 268 268 267 258
344 345 345 344 345 344 346 351 352 351 1 15 44 84 74 43 36 327 340 334 278 320 322 252 235 204 280 285 327 346 348 34 353 339 344 330 13 105 171 34 60 44 255 179 157 36 89 179 226 221 205 192 189 189 165 125 102 104 137 166 208 199 234 261 247 303 9 161 245 213 216 254 260 264 270 283 311 253 231 230 244 250 252 258 266 270 268 272
345 344 345 344 345 344 346 353 355 355 14 37 55 70 87 40 13 301 332 313 295 324 332 292 298 288 299 278 311 349 60 51 340 323 341 357 29 152 216 59 116 194 270 148 102 45 86 221 240 235 204 166 173 185 172 143 107 98 116 140 193 220 237 301 299 322 11 170 260 314 231 260 262 264 272 265 252 244 229 219 230 238 250 263 258 264 269 272
345 345 345 345 344 343 345 354 1 11 31 45 55 62 38 5 349 277 52 332 295 310 318 323 72 274 318 321 283 77 78 60 209 296 345 20 26 171 126 96 128 154 161 159 148 142 179 247 246 218 166 126 115 158 158 137 104 115 119 132 210 240 167 272 281 312 9 96 277 352 278 269 265 270 266 254 245 253 264 260 256 238 232 248 247 246 254 255
345 345 345 344 344 343 345 359 18 25 41 50 51 39 15 5 9 67 17 69 297 298 254 226 165 160 298 301 7 101 113 52 151 274 345 31 89 87 137 146 122 131 190 173 149 160 225 261 233 127 121 123 113 121 144 140 176 242 168 155 186 211 190 212 226 260 3 6 50 61 318 286 251 250 253 270 277 256 281 283 270 264 241 252 268 260 254 255
345 345 344 345 344 343 346 66 17 18 44 47 38 17 10 12 9 23 4 75 330 298 263 240 121 108 14 64 19 112 134 12 158 262 341 32 114 335 184 160 115 174 204 139 126 185 256 262 169 113 94 96 113 142 167 150 176 282 229 192 184 177 177 153 118 94 32 338 296 170 287 285 284 254 244 286 326 212 287 292 254 266 263 259 271 271 272 275
345 343 344 344 343 345 2 103 4 9 72 40 14 357 3 0 339 330 83 57 351 287 288 347 357 26 295 24 352 313 72 349 286 284 8 29 66 124 125 184 75 177 184 143 128 224 253 289 63 126 130 97 107 172 207 150 123 305 248 200 171 137 136 141 140 119 105 254 273 110 186 261 315 302 237 275 313 279 336 319 265 269 278 286 294 299 309 309
344 343 344 344 345 352 19 77 358 21 74 352 349 348 344 335 327 273 98 35 352 258 105 340 341 85 257 302 359 89 119 305 335 15 22 21 326 51 113 260 48 177 188 113 101 248 204 56 54 110 111 102 117 199 210 145 114 242 254 152 144 135 147 159 153 153 188 229 327 24 152 247 297 279 267 307 350 339 335 297 285 309 340 2 9 3 1 352
344 343 343 343 346 359 26 26 13 32 3 334 344 344 326 329 325 191 91 39 325 75 84 321 358 74 312 351 24 90 187 326 55 330 331 39 1 28 71 246 172 219 323 108 174 262 168 106 161 143 112 130 185 209 187 135 105 243 193 104 124 134 139 135 123 143 46 65 298 285 171 240 274 270 312 1 59 11 295 274 323 17 24 28 32 27 25 24
343 343 344 343 345 8 42 38 28 7 346 342 344 333 320 318 295 90 74 94 293 60 73 353 43 328 340 15 15 27 6 355 102 284 331 52 35 44 88 212 143 128 331 100 187 251 96 83 210 142 135 195 220 223 175 142 127 200 115 84 61 62 74 73 92 105 45 63 238 239 178 194 267 253 52 41 84 213 251 271 37 45 43 40 37 31 29 30
343 344 344 345 356 15 12 13 9 352 345 345 337 321 311 291 81 64 53 227 52 38 12 44 15 328 8 34 353 355 28 339 342 343 350 41 7 19 76 176 87 85 354 17 296 254 324 325 238 144 182 199 186 119 138 147 144 132 89 67 49 35 33 39 49 74 61 271 241 209 181 184 262 264 186 169 159 214 225 86 67 50 46 43 36 32 28 28
343 343 344 352 6 8 358 340 344 341 339 340 333 319 296 18 63 88 169 244 53 8 11 21 345 355 31 46 344 339 21 333 332 17 11 9 9 14 33 13 41 52 9 352 317 311 339 331 277 276 257 170 117 67 35 62 114 114 86 84 81 4 8 23 356 40 137 250 252 188 179 175 220 257 240 302 8 31 54 77 74 54 48 43 38 35 29 27
341 339 345 5 358 2 10 339 332 331 330 334 334 34 97 31 20 153 243 317 12 354 13 6 334 4 17 18 329 299 331 323 346 68 106 37 23 341 46 117 178 19 336 282 307 338 321 262 266 311 312 129 125 122 16 6 54 101 106 113 123 354 12 12 287 304 214 251 267 190 155 142 229 260 34 36 31 44 58 69 70 61 52 43 37 35 30 29
340 338 347 18 352 360 2 338 329 326 326 333 345 78 72 70 271 230 296 350 28 322 350 14 328 342 24 354 310 285 288 265 23 56 153 116 38 309 14 73 133 154 250 231 345 352 310 304 328 342 324 79 143 159 189 267 168 148 144 144 155 154 142 221 233 252 258 258 250 196 97 90 256 303 49 61 59 60 62 62 61 60 56 47 40 35 32 31
339 340 357 20 7 355 347 339 335 329 327 336 25 69 59 128 247 329 15 341 287 325 335 358 329 324 76 325 292 297 290 298 3 31 11 49 38 286 338 23 25 62 120 130 66 186 223 293 312 177 284 336 122 172 174 155 163 180 161 140 162 173 171 203 206 199 237 256 262 217 99 189 223 103 79 82 72 65 62 60 59 58 54 49 43 37 32 27
340 350 59 28 15 353 346 345 344 337 330 348 62 74 107 218 263 28 20 304 298 338 315 297 16 1 341 320 324 352 54 286 355 32 6 22 156 190 340 356 358 25 98 151 234 162 189 261 271 269 291 20 39 310 124 108 139 230 128 116 184 195 152 161 192 180 179 183 279 219 217 214 139 104 103 93 69 63 61 55 53 50 43 44 41 33 28 21
352 63 70 27 9 356 353 351 348 343 339 50 74 81 194 201 261 141 8 321 303 324 320 334 58 47 334 325 342 2 19 318 356 17 326 271 119 81 69 6 349 25 83 162 205 136 106 277 288 307 321 37 38 289 359 101 198 160 117 177 223 186 118 134 227 165 125 212 235 187 173 155 121 113 114 81 59 52 50 46 49 45 38 42 41 29 24 18
360 47 59 16 4 358 356 350 343 343 6 85 85 148 198 149 18 271 353 337 278 332 5 4 17 37 338 325 319 338 349 329 15 33 270 292 52 85 79 14 1 50 36 234 221 185 142 275 302 347 267 303 310 273 4 37 111 109 159 212 242 23 87 120 217 128 114 236 241 180 180 185 162 157 114 64 52 47 43 42 46 41 36 40 37 27 21 15
353 42 69 7 2 358 354 345 338 347 55 74 74 116 145 69 34 5 345 326 288 24 51 155 264 322 107 322 302 323 340 325 355 30 272 285 22 100 69 353 323 21 338 327 229 256 103 267 300 334 243 294 355 79 341 1 50 107 202 238 90 121 195 145 177 185 181 220 248 211 199 202 186 162 103 68 58 53 42 39 41 34 33 34 25 21 15 9
7 84 12 358 1 357 351 341 333 19 70 64 65 108 102 69 58 16 344 339 4 48 44 223 294 11 44 111 276 317 351 359 329 18 77 277 313 76 52 353 291 340 338 17 102 300 61 134 277 315 296 308 4 44 203 335 349 27 15 356 58 139 187 184 179 155 173 210 243 232 207 207 298 107 96 88 76 66 53 46 46 37 34 33 24 17 13 11
24 85 329 355 359 352 347 348 9 49 69 77 104 141 350 70 57 5 4 9 23 63 38 24 57 4 329 62 76 329 3 16 347 18 239 314 38 58 34 11 329 329 335 22 65 353 32 110 236 313 335 347 24 55 108 23 327 357 23 360 355 8 26 300 227 94 131 196 231 236 226 232 32 81 93 96 81 69 69 64 59 48 39 36 30 21 13 12
21 70 321 352 355 345 348 28 47 52 86 63 58 52 12 61 46 351 1 14 31 65 55 72 95 30 318 7 25 19 9 1 1 21 284 340 21 42 56 55 317 321 345 20 34 28 44 92 193 314 343 9 129 191 302 12 114 69 32 42 353 347 41 258 233 206 124 193 205 229 244 254 107 106 98 100 86 68 65 64 61 50 41 35 30 25 17 12
50 78 326 352 351 344 14 67 20 52 100 60 29 65 15 50 53 352 355 16 36 41 40 64 75 48 90 102 49 72 47 2 276 306 296 332 20 21 353 352 314 309 69 49 341 239 123 95 94 268 267 249 244 270 322 16 99 99 83 80 37 24 76 184 227 227 349 291 58 243 247 162 103 111 104 100 91 74 61 56 52 41 35 32 27 23 17 12
73 140 334 357 353 347 65 64 354 34 73 269 264 15 6 43 48 7 13 25 28 21 22 32 31 40 76 83 73 73 64 111 226 64 65 21 49 40 325 337 344 359 57 53 312 336 93 88 301 286 311 319 314 332 8 22 69 89 50 37 65 68 88 146 208 52 344 283 23 248 238 185 119 119 108 102 88 75 61 52 49 36 25 23 20 20 14 7
40 231 316 7 14 41 96 82 44 55 358 325 11 8 359 50 81 40 14 352 10 66 39 348 17 67 83 70 72 80 83 81 320 27 65 64 56 44 348 349 5 25 27 305 235 37 53 96 109 359 333 332 338 348 356 352 24 84 15 8 70 63 46 66 16 38 233 229 187 208 244 156 136 130 98 91 82 68 54 47 46 36 22 12 9 14 11 5
23 345 283 9 30 52 93 145 131 111 21 20 27 5 4 6 8 96 30 308 273 128 114 321 358 79 352 61 55 358 25 109 185 347 33 353 313 1 2 352 6 56 295 270 127 119 128 136 113 119 218 240 254 270 269 292 330 54 5 355 41 25 15 44 12 351 224 232 185 187 243 80 136 126 79 64 65 59 47 40 39 34 22 8 1 5 6 6
61 41 307 350 22 45 62 73 97 109 102 75 48 11 26 345 298 316 29 21 15 73 138 280 10 40 35 52 49 353 337 83 100 26 2 292 282 301 345 349 352 284 268 317 79 103 91 68 152 155 184 208 197 219 234 127 17 308 318 261 192 56 68 107 170 239 228 317 291 227 187 246 249 241 39 38 46 46 36 32 30 27 20 8 358 355 357 5
88 93 52 359 352 25 35 20 48 82 104 105 107 322 9 286 305 336 358 58 25 20 44 13 28 58 41 58 65 349 319 356 11 348 276 255 270 304 327 353 346 307 305 10 66 89 89 332 242 168 202 226 199 214 260 82 161 264 291 275 247 177 165 165 213 240 227 23 278 265 179 266 283 314 21 25 26 28 28 33 27 18 16 10 0 352 351 357
73 142 142 115 123 40 38 357 37 72 89 108 124 164 213 243 288 346 329 334 33 44 57 24 38 53 326 158 115 165 301 330 318 305 291 284 300 333 339 329 297 336 11 19 353 84 113 238 242 167 230 252 212 203 204 124 190 228 228 253 262 239 217 210 219 237 229 211 259 281 293 281 289 333 48 26 13 10 16 32 31 19 14 9 4 359 354 351
78 96 355 52 103 178 197 211 61 69 87 148 165 169 197 236 62 90 7 40 17 19 78 90 25 34 12 13 111 184 250 329 301 285 243 270 274 323 340 315 303 27 52 10 334 83 113 240 226 166 240 278 263 209 167 157 210 231 223 234 247 256 252 245 240 234 222 230 249 268 276 278 293 64 89 37 10 359 18 34 32 22 15 8 5 3 357 351
82 113 26 46 62 189 184 127 84 66 29 276 198 173 130 71 54 31 37 99 127 326 52 87 331 3 35 26 58 247 266 253 256 253 209 176 295 279 273 294 330 27 39 36 335 7 84 169 197 127 356 294 281 205 155 177 205 218 237 239 235 247 257 263 268 254 236 245 249 252 263 269 2 77 73 30 7 0 23 29 24 23 19 10 5 2 356 351
78 106 126 105 73 76 106 92 99 98 2 339 38 35 52 60 43 341 334 72 127 126 77 111 250 303 12 8 242 272 297 283 233 238 206 172 215 187 130 170 112 38 341 326 330 341 87 84 353 46 291 281 287 153 182 200 203 239 255 249 237 241 246 252 260 255 251 258 257 258 263 257 82 60 45 26 8 355 358 7 11 22 25 17 10 4 354 347
78 98 111 109 86 69 86 42 47 76 64 2 44 48 55 37 357 64 71 6 61 86 71 142 139 101 359 331 286 304 317 301 257 245 199 172 215 235 232 232 164 138 238 222 341 349 130 135 2 275 252 281 26 151 197 117 14 289 254 230 228 236 240 242 248 252 258 267 262 264 262 167 54 33 27 358 351 340 341 358 9 17 22 16 9 4 351 341
Height
816 814 812 810 808 807 805 803 801 799 797 796 794 792 790 789 787 786 784 783 782 781 779 778 777 776 775 775 774 773 773 772 773 773 773 773 773 773 773 773 773 773 773 774 774 775 775 775 776 776 778 779 780 779 779 779 779 782 786 787 786 785 783 777 775 774 773 774 776 777 775 777 780 780 778 779 782 782 782 781 779 780 779 778 778 778 778 777
816 814 812 810 808 806 804 802 800 798 796 795 793 791 789 788 786 784 782 781 780 779 778 777 776 775 775 774 773 773 772 772 773 772 772 772 773 773 773 772 772 773 773 774 774 774 775 775 775 776 777 778 778 778 780 778 779 782 784 787 785 782 778 772 771 769 768 771 774 775 774 774 776 777 778 780 783 783 783 782 779 780 780 778 777 778 778 777
815 813 811 809 807 806 804 802 799 797 796 794 792 790 788 786 784 782 781 779 779 777 777 776 775 774 774 773 773 773 772 773 773 771 771 772 772 772 772 772 772 772 773 773 774 774 774 774 775 776 777 779 777 778 780 778 779 780 781 786 783 777 775 771 770 769 766 768 772 775 773 773 773 774 777 779 781 783 783 780 779 780 779 777 776 776 777 777
815 813 811 809 807 805 803 801 798 797 795 793 791 789 787 785 783 781 779 777 777 776 775 774 773 773 773 773 773 772 773 773 771 770 770 771 771 771 771 771 772 772 772 773 773 773 774 774 774 775 777 779 777 778 780 778 778 778 779 783 778 775 775 772 771 769 767 767 770 773 774 775 774 774 776 777 781 784 780 775 774 774 773 774 774 774 775 776
814 812 810 808 806 804 802 800 798 796 794 792 789 787 785 784 781 779 777 776 775 774 773 773 772 772 772 772 772 772 773 770 768 769 770 770 770 771 771 771 771 772 772 772 772 773 773 773 774 775 778 779 778 779 778 775 775 777 778 777 774 775 775 772 772 770 769 769 771 773 775 775 774 775 775 775 778 778 773 770 769 768 769 770 770 771 773 774
814 812 810 807 805 803 801 799 797 795 793 790 788 786 784 782 780 778 776 775 773 772 772 771 771 771 771 772 771 772 772 767 768 770 769 770 770 770 770 770 771 771 771 772 772 772 772 773 774 776 778 779 779 779 777 774 774 778 778 774 773 774 773 772 772 770 769 770 772 774 774 773 774 776 774 774 774 770 768 767 766 767 767 768 769 769 770 772
813 811 809 807 805 802 800 798 795 793 791 789 787 785 782 779 778 776 775 773 772 771 770 770 770 771 771 771 771 773 772 768 769 770 769 770 770 770 770 770 771 771 771 771 771 771 772 773 774 776 778 778 779 778 776 774 774 778 778 775 773 772 771 771 771 771 770 770 772 773 773 774 775 775 774 773 770 767 767 767 767 767 767 768 769 769 769 770
812 810 808 806 804 801 799 796 794 792 790 788 785 783 780 778 776 774 773 772 771 770 769 770 770 770 770 770 771 771 771 769 769 769 769 770 769 769 769 769 770 770 771 770 770 771 771 772 773 775 777 777 777 777 775 776 777 778 777 775 773 772 771 771 772 772 771 771 773 773 774 775 775 776 775 771 768 767 767 767 768 768 768 769 769 770 770 771
812 810 807 805 803 801 798 795 793 791 788 786 783 781 778 776 773 772 771 770 770 769 769 769 769 770 770 770 770 769 767 768 768 769 769 769 769 769 769 769 770 770 769 769 770 770 770 771 772 773 775 776 776 776 775 777 778 776 776 774 773 773 773 773 773 772 772 772 774 774 775 776 776 777 773 768 766 766 767 767 768 769 769 769 770 770 771 771
812 809 807 804 802 800 797 795 792 789 787 784 781 779 776 774 772 770 769 769 768 768 768 768 769 769 769 770 770 767 766 768 768 768 769 769 769 769 769 769 769 769 769 769 769 769 770 770 771 772 773 774 775 775 775 776 775 773 774 774 774 775 775 775 773 773 774 773 774 775 777 776 778 779 771 764 765 766 767 768 769 769 770 770 771 770 770 771
811 808 806 804 801 799 796 793 791 788 785 782 779 777 774 772 770 768 767 767 767 767 768 768 768 769 769 769 769 766 766 768 768 768 769 768 769 768 769 769 769 769 769 769 769 769 769 769 770 771 771 772 773 775 775 774 773 772 774 774 776 777 776 776 774 775 776 775 774 775 778 778 780 778 768 763 766 767 767 768 769 770 770 771 771 771 770 770
810 808 805 803 800 797 795 792 789 787 784 780 777 774 772 770 768 767 766 766 766 766 767 767 768 768 769 770 769 767 767 768 768 768 768 768 768 768 768 769 769 769 768 769 769 769 769 769 769 770 771 772 772 774 773 772 774 773 774 775 777 777 775 774 774 776 776 775 774 776 779 779 778 772 764 764 765 766 768 768 769 770 770 770 770 770 770 769
810 807 804 802 799 796 794 791 788 785 781 778 775 772 770 767 766 765 764 765 765 766 767 767 767 768 768 769 768 767 767 768 768 768 768 768 768 768 768 768 768 768 768 768 769 769 769 769 769 770 772 772 772 773 771 772 774 774 777 778 778 779 775 773 775 776 776 775 774 777 778 773 770 767 765 767 765 766 768 768 768 769 768 769 769 769 768 768
809 806 804 801 798 795 792 789 786 783 779 776 773 770 767 765 764 764 764 764 765 766 767 766 767 768 768 768 767 767 768 767 768 768 768 768 768 768 768 768 768 769 769 768 769 769 769 769 769 770 772 773 773 772 773 776 775 776 780 781 782 781 774 773 777 776 775 777 774 776 779 770 763 764 766 768 766 766 768 767 769 768 767 767 767 768 767 767
809 806 804 800 797 794 791 788 785 781 777 774 771 768 765 764 764 764 764 764 765 766 766 767 767 767 768 768 767 767 768 768 768 768 768 768 768 768 768 768 768 769 769 769 769 769 769 769 770 771 773 774 774 774 777 779 778 780 779 780 787 784 773 771 776 776 772 777 777 776 780 773 764 763 766 768 767 767 767 767 768 768 767 767 767 767 766 766
808 806 803 800 797 793 790 787 783 780 776 772 769 767 765 764 764 764 764 765 765 765 766 767 767 767 767 767 767 768 768 768 768 768 768 768 768 768 768 768 768 769 769 769 769 769 769 769 771 773 773 774 775 775 778 780 781 784 780 777 783 785 778 773 774 775 772 775 778 776 776 772 766 765 767 769 767 766 766 766 768 767 767 767 766 766 766 765
808 806 803 800 796 793 790 786 782 779 774 771 768 766 765 765 765 765 764 765 765 765 766 766 767 768 767 767 768 768 769 769 768 769 769 769 768 768 768 768 768 769 769 769 769 770 770 771 774 774 774 777 778 775 777 781 779 782 785 781 782 785 782 775 771 774 774 773 776 777 777 770 765 767 767 769 769 767 766 765 765 766 766 766 765 765 765 765
808 805 802 799 796 793 790 786 782 778 774 770 766 765 765 764 765 765 765 765 765 766 766 767 768 765 763 768 769 769 770 769 769 769 768 769 768 768 768 768 769 769 770 770 770 771 771 774 775 775 777 779 778 774 773 775 773 775 781 781 781 782 781 775 770 771 773 773 774 778 780 773 767 769 767 769 772 769 766 766 767 767 766 765 766 766 766 765
808 805 802 799 796 793 790 786 783 778 774 769 766 766 765 765 765 764 765 765 766 767 766 769 770 764 764 769 771 770 770 769 769 769 768 769 768 768 768 768 769 769 770 771 770 771 771 773 776 775 776 775 774 772 767 769 769 769 776 777 773 774 777 776 771 770 773 774 775 776 777 774 769 769 767 767 773 771 768 770 769 767 766 764 765 765 765 765
807 804 802 799 795 793 789 786 784 780 775 769 766 765 766 770 766 763 768 769 770 772 771 772 773 770 771 772 771 770 770 770 769 769 769 769 768 768 768 769 770 771 771 770 770 772 772 772 773 770 769 771 772 772 770 773 773 771 777 778 774 771 770 772 772 771 774 772 773 776 776 773 771 770 769 770 776 774 769 769 768 766 765 765 765 765 765 765
807 804 801 798 796 793 789 788 785 781 778 772 767 768 777 782 775 772 778 774 772 775 774 773 773 772 772 772 772 771 771 770 770 770 769 769 769 769 769 770 771 771 772 773 771 773 773 771 769 767 767 769 771 774 774 775 773 770 774 775 776 775 770 774 777 774 776 772 771 778 779 775 773 771 769 772 774 771 768 768 766 765 766 766 767 766 766 765
806 803 801 798 796 793 790 788 785 783 781 774 771 777 787 790 785 786 788 780 775 775 774 773 772 773 773 772 772 772 772 772 771 771 769 769 769 770 771 771 772 771 774 775 772 773 776 773 767 767 772 772 773 776 774 772 771 770 774 773 773 777 776 778 780 777 776 773 770 775 777 774 773 773 771 771 770 767 766 767 765 766 766 767 767 766 765 765
805 803 800 798 795 793 790 789 787 783 781 778 780 786 789 790 789 789 789 786 780 775 773 773 772 773 773 772 772 772 772 773 773 771 771 770 770 771 771 771 773 773 774 773 771 774 775 770 766 769 773 773 775 778 775 773 773 772 774 772 771 778 778 772 776 780 779 779 776 775 778 777 774 773 770 770 771 768 766 768 768 768 767 765 765 765 764 762
805 802 800 797 795 792 790 789 787 784 783 784 786 789 790 790 790 789 789 788 782 775 772 772 772 772 773 773 772 773 773 773 774 772 771 770 771 773 771 772 774 774 775 774 772 772 767 764 768 770 770 768 770 775 774 771 774 776 776 772 768 773 775 773 777 780 780 784 782 779 778 775 774 773 766 767 773 772 770 770 768 767 767 766 765 765 764 763
805 802 799 797 794 791 789 788 787 786 787 786 787 790 791 790 789 789 789 784 777 775 773 771 772 772 773 773 772 773 773 774 774 773 772 771 772 773 771 772 773 772 776 777 777 773 765 766 768 766 768 767 766 769 769 768 772 775 774 770 766 766 771 778 782 780 781 782 782 783 775 766 771 774 769 770 769 768 772 771 767 766 766 766 765 764 764 764
805 802 799 797 794 790 787 788 789 788 787 787 790 791 790 791 789 790 789 776 765 770 773 772 772 772 773 773 773 774 773 773 774 773 773 772 773 772 771 772 772 772 775 777 777 772 767 769 767 764 765 767 767 768 771 772 771 772 772 773 773 773 774 777 779 778 780 781 784 787 776 766 768 763 762 771 766 762 769 768 763 763 764 768 770 769 769 769
804 802 800 797 794 790 788 791 791 789 790 790 790 790 790 790 789 791 783 764 758 767 772 771 772 773 774 774 774 774 772 773 774 774 774 773 773 772 772 773 772 772 775 776 773 770 768 767 768 767 765 768 769 767 770 772 769 770 776 779 776 775 777 778 778 777 779 782 786 787 781 777 774 763 767 776 767 762 764 759 759 765 770 776 779 779 778 776
805 802 800 797 795 792 791 793 791 791 792 791 790 789 789 788 790 790 774 757 760 769 770 773 773 772 773 774 775 775 775 775 774 774 775 773 773 772 772 775 775 774 777 776 769 769 771 767 767 768 767 771 769 765 770 770 768 772 781 783 778 778 781 781 781 782 786 788 784 784 786 783 776 772 778 777 765 763 761 756 765 778 783 785 785 785 784 782
804 802 800 798 795 794 793 793 792 793 792 790 789 788 788 789 789 784 770 760 765 770 772 773 773 774 775 775 776 776 776 777 776 775 775 774 773 774 774 776 778 776 778 778 769 768 774 774 773 771 769 769 765 769 773 768 768 778 783 782 782 788 789 787 787 785 789 792 784 782 787 782 773 771 776 773 766 764 758 763 781 791 792 791 790 791 789 787
804 802 800 797 795 794 793 793 793 792 790 789 788 787 787 788 783 775 769 766 765 771 776 775 776 780 779 776 776 778 778 778 779 778 776 776 775 775 777 779 779 777 779 782 776 773 776 778 777 773 770 768 766 772 776 770 771 779 780 778 783 791 790 794 798 793 793 794 785 783 784 781 778 775 774 771 770 767 760 773 795 798 796 797 797 797 796 795
804 801 799 797 796 794 793 793 791 790 790 788 786 787 786 784 778 772 771 769 768 775 779 780 784 784 783 784 781 779 780 780 781 780 776 778 778 777 778 776 776 779 782 782 778 780 780 777 775 773 772 772 768 771 776 777 777 776 776 776 784 793 795 799 803 802 801 792 786 788 785 787 786 775 774 778 783 786 780 788 803 804 803 805 805 805 804 803
803 801 799 798 796 795 795 793 791 789 788 786 786 786 782 778 775 772 770 767 770 782 785 786 790 787 788 791 785 784 785 781 782 781 780 782 780 779 781 779 778 778 780 781 780 781 779 777 779 776 773 773 771 773 779 781 779 777 778 781 788 800 809 808 806 814 810 794 799 802 792 796 791 775 784 797 801 803 801 804 808 809 811 811 811 811 810 808
802 800 799 797 796 796 795 794 792 789 787 785 784 782 779 777 774 773 776 775 779 790 792 789 792 792 793 789 783 790 790 782 784 784 783 787 784 784 789 793 793 782 779 788 788 780 776 778 784 779 774 775 773 775 779 779 781 780 779 783 789 799 812 812 811 822 812 793 803 807 798 798 788 785 806 813 811 812 810 812 813 813 816 816 816 816 813 812
801 799 798 797 796 796 795 793 791 788 786 784 782 780 779 779 779 780 788 795 795 795 794 794 794 793 794 790 787 792 788 783 789 786 783 788 786 784 788 796 801 791 786 792 791 786 779 776 781 783 779 778 776 777 778 776 780 782 779 781 783 784 792 794 796 803 796 791 804 806 799 791 782 797 818 815 814 817 814 817 817 817 819 819 819 817 815 815
800 799 798 797 797 796 795 792 790 788 786 784 783 782 780 781 789 796 801 807 805 799 797 799 798 791 790 794 796 796 790 786 791 788 785 789 788 789 796 802 806 803 795 789 791 798 792 781 786 792 787 784 783 782 781 778 778 782 784 784 782 779 779 783 792 794 788 793 804 799 792 788 790 808 819 816 818 818 817 821 820 820 823 821 820 821 821 821
799 798 798 797 797 796 794 791 790 788 786 785 782 784 790 796 805 811 810 809 808 806 801 796 794 790 788 793 797 798 796 792 793 792 789 792 794 799 810 813 812 812 805 796 794 799 797 788 791 793 788 788 789 785 783 781 777 782 788 784 783 785 780 783 796 802 798 796 794 787 784 788 799 811 815 817 819 819 821 823 823 826 826 824 826 827 828 827
799 798 798 798 797 795 794 792 790 788 787 786 782 791 808 814 814 815 813 811 809 808 805 797 794 794 795 798 799 801 801 795 796 796 792 794 798 805 814 815 814 816 815 810 802 800 800 793 792 795 790 787 791 788 785 787 784 785 789 784 784 789 786 783 789 798 805 800 785 778 778 779 784 794 809 820 821 824 827 826 827 829 827 828 832 833 833 832
799 799 798 799 797 795 794 791 790 789 788 787 789 803 817 818 816 817 816 814 810 808 807 803 800 801 805 806 806 809 807 798 799 802 797 795 800 809 816 817 816 816 818 815 805 805 807 798 794 802 799 790 790 788 785 789 790 790 790 787 787 790 787 786 788 794 803 797 781 773 772 771 772 784 807 823 826 829 830 829 830 831 831 834 835 835 835 834
799 799 799 800 797 795 794 791 791 790 788 792 800 810 817 818 819 821 819 816 812 811 811 810 810 810 813 815 815 818 816 809 808 808 803 799 805 816 822 821 818 816 817 815 809 809 810 803 799 803 803 796 791 790 793 796 795 794 794 792 795 795 789 788 790 790 791 789 784 776 772 782 794 804 819 828 830 832 832 833 834 834 837 837 837 839 837 836
800 800 801 800 797 796 793 791 792 792 796 805 813 816 818 820 821 821 820 818 815 815 815 817 818 817 819 822 823 823 823 821 820 816 811 809 813 822 828 828 824 820 817 813 814 815 812 810 809 805 803 801 800 807 814 814 810 805 802 802 806 803 796 796 797 795 792 787 784 775 772 797 819 820 824 829 830 833 833 835 838 838 840 839 840 842 840 840
801 800 802 800 798 796 793 793 798 802 808 817 821 821 820 820 822 822 821 820 818 818 819 820 822 822 823 824 826 827 827 827 825 822 820 821 821 825 830 833 830 826 820 814 818 821 817 818 820 816 811 808 814 823 821 819 821 818 816 817 819 814 807 804 799 797 797 791 788 782 777 802 825 822 825 832 832 834 835 835 838 839 841 842 841 843 842 842
803 802 804 801 798 795 793 800 810 814 817 822 824 824 822 821 824 826 824 822 823 822 822 824 825 827 827 827 829 831 831 830 828 826 828 831 831 831 832 833 830 827 824 821 825 825 825 829 829 826 825 820 824 827 822 821 821 820 825 826 826 825 822 818 807 805 810 805 803 801 791 806 827 824 826 833 832 836 838 838 841 841 842 843 843 844 845 844
808 807 805 802 799 795 795 805 816 821 823 827 828 827 826 826 828 829 828 827 828 827 827 827 828 829 831 831 831 831 832 833 831 830 832 836 837 835 833 831 828 827 826 826 827 825 826 831 828 828 832 829 827 827 825 827 822 824 832 832 833 836 834 835 830 830 835 824 813 807 796 809 830 828 828 834 834 839 841 842 845 845 845 846 845 847 847 846
814 812 809 805 799 795 800 811 821 826 830 830 828 828 829 830 831 832 832 831 831 831 831 831 831 831 833 835 834 834 835 836 836 837 837 837 837 835 833 831 828 828 829 828 829 829 830 835 835 834 834 828 825 827 828 830 829 834 839 837 839 840 839 844 841 839 844 832 818 809 797 808 828 828 829 836 837 841 844 845 849 849 849 850 848 849 849 848
814 811 812 810 803 801 811 821 825 829 834 832 831 835 835 832 832 834 835 833 833 834 833 833 833 833 835 837 839 839 837 837 839 841 842 841 838 834 835 835 832 831 830 828 830 832 836 842 843 840 837 830 828 831 834 836 839 843 844 841 841 840 840 844 842 842 842 830 825 825 814 816 827 828 832 838 840 845 848 849 851 852 853 853 851 851 851 850
812 811 814 816 813 814 821 827 827 830 835 834 835 841 840 835 834 834 833 834 834 834 833 834 835 835 836 839 841 842 841 841 843 844 845 843 838 837 839 838 836 833 830 829 830 834 841 848 845 841 840 839 836 835 835 839 842 843 844 844 845 844 843 845 847 850 847 838 838 837 830 831 829 827 835 842 844 848 851 853 855 855 856 856 854 853 852 852
815 818 822 821 820 822 826 830 831 833 836 835 837 841 840 838 839 836 833 835 836 835 835 836 837 837 838 840 844 846 846 847 847 846 846 845 841 841 842 841 839 834 831 832 834 837 844 847 846 845 842 840 841 839 837 841 844 843 843 845 845 846 845 846 850 849 845 846 842 831 833 841 832 829 841 848 850 854 855 857 859 859 859 859 858 856 854 853
817 822 826 824 825 829 830 831 833 834 836 836 838 840 838 838 840 838 835 836 837 837 837 838 840 841 843 843 844 847 847 847 847 845 846 848 846 844 843 841 840 837 835 836 836 839 844 844 848 852 844 839 846 849 845 845 846 845 845 844 843 846 846 848 851 847 846 852 845 833 838 843 835 840 853 856 857 859 857 859 862 861 862 862 861 860 857 855
820 824 826 825 827 833 833 832 832 834 834 833 836 838 838 838 840 839 839 838 839 839 839 841 845 846 847 847 846 847 846 847 849 847 846 847 846 845 845 842 840 840 841 840 838 842 848 847 847 852 847 842 847 853 853 851 849 848 849 846 844 845 844 846 847 846 848 852 846 841 843 842 840 852 862 862 863 862 860 862 864 864 865 865 864 864 862 860
821 824 826 827 829 831 832 832 833 835 835 833 834 836 838 841 842 841 841 842 842 843 843 845 849 847 847 847 847 847 847 847 849 849 847 846 846 847 847 843 841 842 842 843 843 844 849 849 847 851 852 847 844 849 855 854 851 852 851 848 848 848 847 846 846 846 848 848 845 844 843 842 850 862 864 864 866 864 863 865 866 867 868 868 868 867 866 865
822 823 825 827 830 830 830 832 834 835 836 836 836 838 841 846 847 843 843 845 845 845 846 848 848 848 847 848 847 848 849 848 848 848 847 848 847 847 848 845 844 845 845 845 844 844 848 851 850 851 849 846 847 850 852 853 855 857 856 852 851 851 849 848 844 842 844 844 843 845 844 846 857 867 866 866 869 868 867 868 868 870 871 871 871 871 870 869
823 824 824 826 830 831 831 833 835 836 838 839 840 842 845 848 848 844 844 846 846 847 849 848 848 850 850 850 850 852 852 850 849 848 847 848 847 846 847 847 846 847 848 847 847 849 850 849 851 851 844 846 854 853 850 853 852 850 851 850 849 849 848 847 843 839 841 843 842 843 848 856 866 869 867 868 870 870 869 869 870 872 873 873 873 873 873 873